Weather History for KLAR - March, 2013

Change the Weather History Date:

Saturday, March 9, 2013

  Actual Average Record
Temperature  
Mean Temperature 24 °F 29 °F  
Max Temperature 30 °F 41 °F 65 °F (1972)
Min Temperature 17 °F 17 °F -24 °F (1969)
Degree Days  
Heating Degree Days 41 36  
Month to date heating degree days 294 332  
Since 1 July heating degree days 6198 6508  
Cooling Degree Days 0 0  
Month to date cooling degree days 0 0  
Year to date cooling degree days 0 0  
Moisture  
Dew Point 22 °F    
Average Humidity 84    
Maximum Humidity 100    
Minimum Humidity 68    
Precipitation  
Precipitation 0.04 in 0.01 in 0.25 in (1958)
Month to date precipitation 0.04 0.14  
Year to date precipitation 0.61 0.75  
Sea Level Pressure  
Sea Level Pressure 29.79 in    
Wind  
Wind Speed 16 mph (North)    
Max Wind Speed 29 mph    
Max Gust Speed 35 mph    
Visibility 4 miles    
Events Fog , Snow    
T = Trace of Precipitation, MM = Missing Value Source: NWS Daily Summary

Daily Weather History Graph

Daily Weather History Graph

Search for Another Location

Airport or City:

Trip Planner

Search our weather history database for the weather conditions in past years. The results will help you decide how hot, cold, wet, or windy it might be!

Date:

Astronomy

Mar. 09, 2013 Rise Set
Actual Time 6:23 AM MST 6:02 PM MST
Civil Twilight 5:56 AM MST 6:30 PM MST
Nautical Twilight 5:24 AM MST 7:02 PM MST
Astronomical Twilight 4:52 AM MST 7:34 PM MST
Moon 4:50 AM MST (3/9) 4:07 PM MST (3/9)
Length of Visible Light 12h 34m
Length of Day
11h 39m
Waning Crescent, 5% of the Moon is Illuminated
Mar 9
Waning Crescent
Mar 11
New
Mar 19
First Quarter
Mar 27
Full
Apr 2
Last Quarter

Hourly Weather History & Observations

Time (MST) Temp. Windchill Dew Point Humidity Pressure Visibility Wind Dir Wind Speed Gust Speed Precip Events Conditions
12:53 AM 28.0 °F 20.8 °F 25.0 °F 88% 29.55 in 10.0 mi NNW 6.9 mph - N/A   Scattered Clouds
1:53 AM 26.1 °F 19.4 °F 25.0 °F 96% 29.56 in 6.0 mi NNW 5.8 mph - N/A   Partly Cloudy
2:53 AM 27.0 °F 21.6 °F 26.1 °F 96% 29.53 in 6.0 mi NNW 4.6 mph - N/A   Mostly Cloudy
3:18 AM 28.4 °F 23.3 °F 26.6 °F 93% 29.65 in - North 4.6 mph - N/A   Overcast
3:39 AM 28.4 °F 18.0 °F 26.6 °F 93% 29.65 in - NNW 12.7 mph - 0.00 in Snow Light Snow
3:49 AM 28.4 °F 17.5 °F 26.6 °F 93% 29.64 in 2.5 mi NNW 13.8 mph - 0.00 in Snow Light Snow
3:50 AM 28.9 °F 17.7 °F 27.0 °F 92% 29.55 in 2.5 mi NNW 15.0 mph - 0.00 in Snow Light Snow
3:58 AM 28.4 °F 15.8 °F 26.6 °F 93% 29.65 in 3.0 mi NNW 18.4 mph 24.2 mph 0.00 in Snow Light Snow
4:53 AM 28.0 °F 18.1 °F 27.0 °F 96% 29.61 in 7.0 mi North 11.5 mph - 0.00 in   Overcast
5:53 AM 27.0 °F 16.7 °F 25.0 °F 92% 29.62 in 4.0 mi North 11.5 mph - 0.00 in Snow Light Snow
6:22 AM 26.6 °F 15.2 °F 24.8 °F 93% 29.68 in 4.0 mi North 13.8 mph - 0.00 in Snow Light Snow
6:53 AM 26.1 °F 15.6 °F 25.0 °F 96% 29.68 in 4.0 mi North 11.5 mph - 0.00 in Snow Light Snow
7:01 AM 26.6 °F 16.8 °F 24.8 °F 93% 29.70 in 3.0 mi North 10.4 mph - 0.00 in Snow Light Snow
7:32 AM 26.6 °F 17.5 °F 24.8 °F 93% 29.71 in 1.8 mi NNE 9.2 mph - 0.00 in Snow Light Snow
7:46 AM 26.6 °F 16.2 °F 24.8 °F 93% 29.71 in 0.8 mi NNE 11.5 mph - 0.01 in Snow Light Snow
7:53 AM 27.0 °F 18.0 °F 25.0 °F 92% 29.70 in 0.8 mi NNE 9.2 mph - 0.01 in Snow Light Snow
7:57 AM 26.6 °F 18.2 °F 26.6 °F 100% 29.71 in 0.5 mi North 8.1 mph - 0.00 in Fog , Snow Snow
8:20 AM 26.6 °F 18.2 °F 24.8 °F 93% 29.72 in 0.8 mi North 8.1 mph - 0.02 in Snow Light Snow
8:28 AM 26.6 °F 17.5 °F 26.6 °F 100% 29.72 in 1.2 mi North 9.2 mph - 0.02 in Snow Light Snow
8:51 AM 28.4 °F 18.5 °F 26.6 °F 93% 29.73 in - North 11.5 mph - 0.02 in Snow Snow
8:53 AM 28.0 °F 18.6 °F 26.1 °F 92% 29.73 in - North 10.4 mph - 0.02 in Snow Snow
8:58 AM 28.4 °F 18.0 °F 24.8 °F 86% 29.73 in 0.8 mi North 12.7 mph - 0.00 in Snow Light Snow
9:22 AM 26.6 °F 13.1 °F 24.8 °F 93% 29.74 in 1.5 mi North 19.6 mph 28.8 mph 0.01 in Snow Light Snow
9:30 AM 26.6 °F 14.3 °F 23.0 °F 86% 29.74 in 2.5 mi NNE 16.1 mph 27.6 mph 0.01 in Snow Light Snow
9:46 AM 26.6 °F 13.1 °F 23.0 °F 86% 29.75 in 1.5 mi North 19.6 mph 27.6 mph 0.01 in Snow Light Snow
9:53 AM 26.1 °F 12.7 °F 23.0 °F 88% 29.77 in 1.5 mi North 18.4 mph 29.9 mph 0.01 in Snow Light Snow
10:28 AM 26.6 °F 13.4 °F 23.0 °F 86% 29.77 in - North 18.4 mph - 0.00 in Snow Light Snow
10:43 AM 26.6 °F 13.8 °F 23.0 °F 86% 29.77 in 1.2 mi North 17.3 mph 26.5 mph 0.00 in Snow Light Snow
10:53 AM 26.1 °F 11.3 °F 21.9 °F 84% 29.82 in 1.2 mi North 23.0 mph - 0.00 in Snow Light Snow
11:22 AM 24.8 °F 10.3 °F 21.2 °F 86% 29.79 in 2.0 mi North 20.7 mph - 0.00 in Snow Light Snow
11:53 AM 25.0 °F 11.3 °F 21.9 °F 88% 29.83 in 2.5 mi North 18.4 mph - 0.00 in Snow Light Snow
12:03 PM 24.8 °F 9.0 °F 21.2 °F 86% 29.79 in 2.5 mi North 25.3 mph 31.1 mph 0.00 in Snow Light Snow
12:14 PM 26.6 °F 12.4 °F 21.2 °F 80% 29.80 in 2.0 mi North 21.9 mph 32.2 mph 0.00 in Snow Light Snow
12:22 PM 24.8 °F 9.3 °F 21.2 °F 86% 29.80 in 1.5 mi North 24.2 mph 31.1 mph 0.00 in Snow Light Snow
12:32 PM 26.6 °F 12.0 °F 21.2 °F 80% 29.80 in - North 23.0 mph 29.9 mph 0.00 in Snow Light Snow
12:53 PM 25.0 °F 9.9 °F 21.9 °F 88% 29.84 in - North 23.0 mph - 0.00 in Snow Snow
1:14 PM 24.8 °F 10.0 °F 21.2 °F 86% 29.80 in 0.8 mi NNW 21.9 mph 28.8 mph 0.00 in Snow Light Snow
1:21 PM 24.8 °F 10.3 °F 21.2 °F 86% 29.80 in 0.5 mi North 20.7 mph 28.8 mph 0.00 in Fog , Snow Snow
1:29 PM 24.8 °F 10.3 °F 21.2 °F 86% 29.80 in 0.8 mi North 20.7 mph - 0.00 in Snow Light Snow
1:38 PM 26.6 °F 14.7 °F 21.2 °F 80% 29.81 in 1.5 mi North 15.0 mph - 0.00 in Snow Light Snow
1:43 PM 26.6 °F 13.1 °F 21.2 °F 80% 29.80 in 3.0 mi North 19.6 mph 26.5 mph 0.00 in Snow Light Snow
1:53 PM 27.0 °F 11.6 °F 19.0 °F 72% 29.84 in - North 26.5 mph 32.2 mph 0.00 in Snow Light Snow
2:09 PM 28.4 °F 14.1 °F 19.4 °F 69% 29.81 in 8.0 mi North 24.2 mph 34.5 mph 0.00 in Snow Light Snow
2:53 PM 28.0 °F 14.3 °F 19.0 °F 69% 29.86 in 10.0 mi North 21.9 mph 34.5 mph 0.00 in   Overcast
3:53 PM 26.1 °F 12.0 °F 17.1 °F 69% 29.88 in 10.0 mi North 20.7 mph 27.6 mph 0.00 in   Mostly Cloudy
4:53 PM 25.0 °F 10.2 °F 16.0 °F 69% 29.92 in 10.0 mi North 21.9 mph - 0.00 in   Mostly Cloudy
5:13 PM 24.8 °F 10.3 °F 15.8 °F 69% 29.88 in 10.0 mi North 20.7 mph 29.9 mph N/A   Mostly Cloudy
5:45 PM 23.0 °F 6.9 °F 15.8 °F 74% 29.90 in 10.0 mi North 24.2 mph - N/A   Overcast
5:53 PM 23.0 °F 6.9 °F 15.1 °F 72% 29.97 in 10.0 mi North 24.2 mph 32.2 mph N/A   Overcast
6:53 PM 23.0 °F 7.6 °F 14.0 °F 68% 30.03 in 10.0 mi North 21.9 mph - N/A   Overcast
7:53 PM 19.9 °F 6.2 °F 12.9 °F 74% 30.08 in 10.0 mi North 15.0 mph - N/A   Mostly Cloudy
8:53 PM 19.0 °F 6.1 °F 12.9 °F 77% 30.11 in 10.0 mi NNW 12.7 mph - N/A   Overcast
9:53 PM 18.0 °F 5.4 °F 14.0 °F 84% 30.14 in 10.0 mi NW 11.5 mph - N/A   Overcast
10:42 PM 19.4 °F 4.5 °F 15.8 °F 86% 30.04 in 9.0 mi NW 17.3 mph - 0.00 in Snow Light Snow
10:53 PM 19.9 °F 5.2 °F 15.1 °F 81% 30.13 in 6.0 mi NNW 17.3 mph - 0.00 in Snow Light Snow
11:53 PM 19.9 °F 6.2 °F 16.0 °F 85% 30.13 in 5.0 mi NNW 15.0 mph - 0.00 in Snow Light Snow